[[{"header":{"parameterUnit":"m.s-1","parameterCategory":1,"la1":30.2991,"la2":30.254,"lo1":-89.0895,"lo2":-89.0444,"dy":0.0017,"dx":0.0017,"nx":28,"ny":28,"refTime":"2024-04-07T09:00:00:Z","depth":0,"parameterNumber":2,"parameterNumberName":"U-component_of_WINDS"},"data":[0,0,0,0,0,0,0,0,0,0,0,0,0,0,0,0,0,0,0,0,0,0,0,0,0,0,0,0,0,0,0,0,0,0,0,0,0,0,0,0,0,0,0,0,0,0,0,0,0,0,0,0,0,0,0,0,0,0,-2.8596,-2.8596,0,-2.8571,-2.857,-2.857,-2.8453,-2.845,-2.8447,-2.8445,-2.8421,-2.8422,-2.8424,0,0,0,0,0,0,0,0,0,0,0,0,0,-2.8547,-2.8549,-2.8597,-2.8596,-2.8596,-2.8571,-2.857,-2.857,-2.8453,-2.845,-2.8446,-2.8443,-2.842,-2.8422,-2.8425,0,0,0,0,0,0,0,0,0,0,0,0,0,-2.855,-2.8549,-2.8597,-2.8534,-2.8529,-2.8571,-2.857,-2.857,-2.8454,-2.845,-2.8446,-2.8442,-2.8419,-2.8422,-2.8425,-2.8525,0,0,-2.8434,-2.8435,0,0,0,0,0,0,0,0,-2.855,-2.8552,-2.8544,-2.8539,-2.8532,-2.851,-2.8544,-2.8555,-2.8455,-2.8482,-2.8444,-2.844,-2.8454,-2.8454,-2.8458,-2.8524,-2.8523,-2.8434,-2.8436,-2.8437,-2.8438,0,0,0,0,0,0,0,-2.855,-2.8552,-2.8586,-2.8544,-2.8537,-2.8509,-2.8505,-2.8546,-2.8492,-2.848,-2.8471,-2.8469,-2.845,-2.8456,-2.8457,-2.8523,-2.8434,-2.8436,-2.8438,-2.8439,-2.867,-2.8674,0,0,0,0,0,0,-2.8558,-2.8553,-2.8587,-2.8585,-2.8531,-2.8513,-2.8508,-2.8522,-2.8491,-2.8482,-2.8473,-2.8464,-2.8453,-2.8453,-2.8455,-2.857,-2.8437,-2.844,-2.8441,-2.8665,-2.8671,-2.8675,0,0,0,0,0,0,-2.8558,-2.8562,-2.8588,-2.8567,-2.8568,-2.8518,-2.8534,-2.8523,-2.8529,-2.8486,-2.8476,-2.8488,-2.8449,-2.8451,-2.8508,-2.8568,-2.8441,-2.8444,-2.866,-2.8667,-2.8673,-2.8801,0,0,0,0,0,0,-2.8557,-2.8563,-2.86,-2.8569,-2.857,-2.8641,-2.8538,-2.8526,-2.8534,-2.8522,-2.8498,-2.849,-2.8446,-2.8505,-2.8511,-2.8569,-2.8446,-2.8655,-2.8663,-2.8671,-2.8791,-2.8811,-2.8828,0,0,0,0,0,-2.8555,-2.8638,-2.8602,-2.8607,-2.8615,-2.8645,-2.8646,-2.8593,-2.8539,-2.8576,-2.8549,-2.849,-2.8561,-2.8512,-2.8518,-2.8578,-2.8651,-2.8661,-2.867,-2.8783,-2.8807,-2.8828,0,0,0,0,0,0,-2.8678,-2.8632,-2.8593,-2.8667,-2.8661,-2.8625,-2.867,-2.8621,-2.863,-2.8619,-2.8554,-2.855,-2.8617,-2.8603,-2.8549,-2.8673,-2.8596,-2.8607,-2.8679,-2.8702,-2.872,-2.8721,-2.8448,0,0,0,0,0,-2.8714,-2.8741,-2.87,-2.877,-2.8769,-2.8721,-2.8732,-2.8692,-2.8683,-2.868,-2.8656,-2.8651,-2.8671,-2.8686,-2.8703,-2.879,-2.8782,-2.8834,-2.8852,-2.8868,-2.8878,-2.8922,-2.8944,-2.8708,-2.8708,-2.8708,0,0,-2.8788,-2.8766,-2.8788,-2.8794,-2.8784,-2.8815,-2.8719,-2.8755,-2.8777,-2.8686,-2.8737,-2.8721,-2.871,-2.8782,-2.8813,-2.8773,-2.8942,-2.888,-2.8893,-2.8895,-2.8935,-2.8957,-2.8977,-2.8715,-2.8713,-2.8712,0,0,-2.8938,-2.8925,-2.8981,-2.8973,-2.8959,-2.8926,-2.894,-2.8912,-2.8897,-2.8948,-2.888,-2.8906,-2.8943,-2.8938,-2.894,-2.9089,-2.9036,-2.9097,-2.9192,-2.9236,-2.9255,-2.9271,-2.9323,-2.9343,-2.9107,-2.9108,-2.9108,0,-2.9032,-2.9074,-2.9016,-2.9057,-2.9061,-2.8979,-2.9036,-2.9032,-2.9025,-2.903,-2.8986,-2.903,-2.9017,-2.9087,-2.9123,-2.9128,-2.9142,-2.9098,-2.9257,-2.9273,-2.9287,-2.9336,-2.9356,-2.9115,-2.9114,-2.9114,-2.9113,0,-2.9189,-2.922,-2.9267,-2.9261,-2.9271,-2.932,-2.9271,-2.9288,-2.9248,-2.9221,-2.9274,-2.9256,-2.9267,-2.9281,-2.9243,-2.9346,-2.9321,-2.9268,-2.9188,-2.9318,-2.9363,-2.9381,-2.9126,-2.9123,-2.9121,-2.9119,0,0,-2.9414,-2.9376,-2.9394,-2.939,-2.937,-2.9392,-2.9438,-2.9448,-2.9464,-2.9463,-2.9499,-2.9532,-2.9483,-2.9486,-2.9446,-2.9485,-2.9603,-2.9427,-2.9426,-2.9459,-2.9715,-2.9753,-2.9776,-2.9569,-2.9572,-2.9575,-2.9715,0,-2.9556,-2.963,-2.958,-2.9662,-2.9689,-2.9612,-2.9652,-2.9644,-2.962,-2.964,-2.9614,-2.9638,-2.9572,-2.9573,-2.9608,-2.9582,-2.9653,-2.9571,-2.9601,-2.9603,-2.9605,-2.98,-2.9841,-2.9974,-2.9732,-2.9735,-2.9737,0,-2.9731,-2.9736,-2.9821,-2.9794,-2.9804,-2.984,-2.9845,-2.9866,-2.9855,-2.9835,-2.9839,-2.979,-2.9833,-2.9756,-2.9815,-2.976,-2.977,-2.9759,-2.9763,-2.9762,-2.9677,-2.9803,-3.0015,-3.0035,-2.9765,-2.9763,-2.9761,0,-2.9885,-2.9914,-2.9967,-2.9967,-2.9937,-2.9965,-2.9954,-2.9939,-2.9949,-2.9954,-2.9959,-2.997,-2.9976,-2.9986,-2.9941,-2.9889,-3.0006,-2.9925,-2.999,-2.9991,-3.0016,-3.0015,-3.0231,-3.0026,-3.0026,-3.0025,-3.0025,0,-3.0048,-3.0103,-3.0036,-3.0069,-3.0128,-3.0071,-3.0131,-3.0113,-3.0101,-3.0129,-3.0065,-3.0093,-3.0033,-3.0056,-3.0021,-3.0075,-3.0078,-3.0063,-3.0053,-3.0068,-3.007,-3.0072,-3.0061,-3.003,-3.0029,-3.0028,-3.0027,0,-3.0229,-3.0187,-3.024,-3.0208,-3.0201,-3.0246,-3.0219,-3.0249,-3.0221,-3.0258,-3.0263,-3.022,-3.0243,-3.02,-3.0218,-3.0195,-3.0269,-3.0246,-3.0272,-3.0265,-3.0331,-3.0325,-3.0555,-3.0582,-3.0362,-3.0364,-3.0366,0,-3.0335,-3.0375,-3.0347,-3.0361,-3.0353,-3.0377,-3.0386,-3.0332,-3.0344,-3.0335,-3.0366,-3.0384,-3.0395,-3.0436,-3.0406,-3.042,-3.0395,-3.0475,-3.0397,-3.041,-3.0395,-3.0392,-3.0395,-3.0491,-3.0494,-3.0496,-3.0498,0,-3.0526,-3.0503,-3.0518,-3.0526,-3.0538,-3.0542,-3.0541,-3.0557,-3.0499,-3.0516,-3.0539,-3.0548,-3.0566,-3.0584,-3.0591,-3.058,-3.053,-3.0523,-3.0538,-3.0553,-3.0566,-3.0558,-3.0314,-3.0517,-3.0515,-3.0514,-3.0513,-3.0512,-3.0671,-3.0703,-3.0688,-3.0707,-3.07,-3.0701,-3.0727,-3.0702,-3.072,-3.0729,-3.0697,-3.0727,-3.0716,-3.072,-3.0715,-3.0738,-3.0702,-3.0725,-3.0731,-3.0737,-3.0746,-3.0564,-3.0739,-3.0739,-3.0738,-3.0738,-3.0737,0,-3.0858,-3.0845,-3.0863,-3.0863,-3.0878,-3.0829,-3.0826,-3.0841,-3.0868,-3.0862,-3.0874,-3.09,-3.0918,-3.089,-3.0903,-3.0927,-3.0904,-3.0933,-3.0929,-3.0927,-3.0778,-3.0763,-3.0951,-3.0951,-3.0951,-3.0951,-3.0951,-3.095,-3.0957,-3.1007,-3.0983,-3.103,-3.1016,-3.1044,-3.1046,-3.1047,-3.1042,-3.1073,-3.1087,-3.1069,-3.1054,-3.1066,-3.108,-3.1072,-3.1079,-3.1115,-3.1098,-3.0959,-3.0938,-3.0918,-3.0903,-3.1118,-3.1118,-3.1245,-3.1246,-3.1247]},{"header":{"parameterUnit":"m.s-1","parameterCategory":1,"la1":30.2991,"la2":30.254,"lo1":-89.0895,"lo2":-89.0444,"dy":0.0017,"dx":0.0017,"nx":28,"ny":28,"refTime":"2024-04-07T09:00:00:Z","depth":0,"parameterNumber":3,"parameterNumberName":"V-component_of_WINDS"},"data":[0,0,0,0,0,0,0,0,0,0,0,0,0,0,0,0,0,0,0,0,0,0,0,0,0,0,0,0,0,0,0,0,0,0,0,0,0,0,0,0,0,0,0,0,0,0,0,0,0,0,0,0,0,0,0,0,0,0,2.5137,2.5136,0,2.5037,2.5036,2.5035,2.4866,2.4863,2.486,2.4857,2.4757,2.4757,2.4757,0,0,0,0,0,0,0,0,0,0,0,0,0,2.5185,2.5185,2.5137,2.5136,2.5134,2.5037,2.5036,2.5034,2.4867,2.4863,2.4859,2.4856,2.4757,2.4757,2.4757,0,0,0,0,0,0,0,0,0,0,0,0,0,2.5132,2.5185,2.5137,2.5039,2.5029,2.5038,2.5036,2.5034,2.4868,2.4863,2.4858,2.4854,2.4757,2.4757,2.4757,2.4854,0,0,2.4758,2.4759,0,0,0,0,0,0,0,0,2.5136,2.5131,2.5055,2.5046,2.5035,2.4959,2.5016,2.4974,2.4869,2.4929,2.4857,2.4852,2.4828,2.4822,2.4814,2.4849,2.4845,2.4758,2.4759,2.4759,2.4759,0,0,0,0,0,0,0,2.5139,2.5134,2.5097,2.5054,2.5042,2.5001,2.4988,2.5007,2.4906,2.4924,2.4911,2.4902,2.4822,2.4814,2.481,2.4843,2.4758,2.4759,2.4759,2.4759,2.4953,2.4957,0,0,0,0,0,0,2.5157,2.5138,2.51,2.5094,2.5075,2.5004,2.499,2.4988,2.4906,2.4888,2.4906,2.4894,2.4816,2.481,2.4806,2.4913,2.4759,2.4759,2.4759,2.4948,2.4954,2.4959,0,0,0,0,0,0,2.5159,2.5155,2.5104,2.5113,2.5103,2.5008,2.5008,2.4989,2.4981,2.4892,2.4873,2.4916,2.4812,2.4806,2.4843,2.4908,2.4759,2.476,2.4942,2.495,2.4956,2.5129,0,0,0,0,0,0,2.5161,2.5157,2.5192,2.5115,2.5104,2.5143,2.5012,2.499,2.4982,2.4966,2.4897,2.4881,2.4808,2.4843,2.4844,2.4905,2.476,2.4936,2.4945,2.4954,2.5117,2.5142,2.5162,0,0,0,0,0,2.5163,2.5245,2.5195,2.5191,2.5145,2.5147,2.5141,2.5054,2.4988,2.5022,2.4966,2.4883,2.4901,2.4849,2.4847,2.491,2.4931,2.4943,2.4953,2.5107,2.5137,2.5162,0,0,0,0,0,0,2.5333,2.5233,2.5176,2.5235,2.5201,2.5119,2.516,2.5088,2.5072,2.5058,2.4952,2.4938,2.4989,2.4953,2.4897,2.4999,2.4903,2.4915,2.5021,2.5048,2.507,2.5078,2.476,0,0,0,0,0,2.5377,2.5386,2.5299,2.5359,2.5345,2.5256,2.5254,2.519,2.515,2.5135,2.508,2.5046,2.5043,2.5044,2.5036,2.5112,2.5094,2.5154,2.5177,2.5196,2.5207,2.5244,2.527,2.4995,2.4995,2.4995,0,0,2.5468,2.5415,2.5427,2.5392,2.5358,2.537,2.5245,2.5263,2.5271,2.5138,2.5169,2.5129,2.5083,2.514,2.5162,2.5112,2.5279,2.521,2.5226,2.5226,2.5258,2.5284,2.5308,2.5003,2.5002,2.5,0,0,2.5641,2.5602,2.5648,2.5616,2.5566,2.5506,2.5518,2.5447,2.5414,2.5445,2.5345,2.5354,2.5352,2.5323,2.5308,2.5472,2.5396,2.5473,2.559,2.5628,2.565,2.5668,2.5727,2.5749,2.5484,2.5485,2.5485,0,2.5761,2.5775,2.5681,2.5705,2.5693,2.5573,2.5619,2.5593,2.5544,2.5539,2.5483,2.5478,2.5439,2.5487,2.5528,2.552,2.553,2.548,2.5654,2.5672,2.5688,2.5742,2.5764,2.5494,2.5493,2.5492,2.5491,0,2.5925,2.5936,2.598,2.5935,2.5927,2.5964,2.5876,2.588,2.5818,2.5764,2.5797,2.5746,2.5726,2.5733,2.5673,2.5774,2.5744,2.5673,2.5574,2.5725,2.5775,2.5795,2.5508,2.5505,2.5502,2.5499,0,0,2.62,2.6103,2.6121,2.6099,2.6035,2.6043,2.6074,2.6054,2.606,2.6031,2.6054,2.6056,2.599,2.5973,2.5908,2.5942,2.6075,2.5866,2.5863,2.5906,2.6183,2.6237,2.6263,2.6024,2.6028,2.6031,2.6187,0,2.6359,2.6405,2.6322,2.6388,2.6398,2.6284,2.6311,2.6276,2.6228,2.6229,2.6176,2.6179,2.6091,2.608,2.6108,2.6053,2.6129,2.6041,2.6045,2.6047,2.606,2.6288,2.6345,2.6495,2.6206,2.6209,2.6211,0,2.655,2.653,2.6597,2.653,2.6531,2.6557,2.6532,2.6536,2.6494,2.6456,2.6439,2.6363,2.6389,2.6294,2.6329,2.6271,2.6268,2.6242,2.6245,2.6242,2.6138,2.6291,2.6541,2.6563,2.6241,2.6239,2.6236,0,2.6744,2.6734,2.6772,2.6757,2.668,2.6701,2.667,2.6623,2.6617,2.6597,2.6592,2.6575,2.6566,2.6555,2.6477,2.6415,2.6521,2.642,2.6491,2.6493,2.6518,2.6517,2.677,2.6518,2.6517,2.6517,2.6517,0,2.6929,2.6975,2.6858,2.6882,2.693,2.6835,2.6885,2.6843,2.6803,2.6817,2.6718,2.6734,2.663,2.6634,2.6574,2.6612,2.6609,2.6579,2.6562,2.6588,2.6592,2.6584,2.6571,2.6523,2.6522,2.652,2.6519,0,2.7153,2.7077,2.7111,2.7036,2.7018,2.7057,2.6993,2.7012,2.6958,2.6977,2.6976,2.6892,2.6892,2.6813,2.6797,2.6756,2.6821,2.6785,2.6835,2.6823,2.6899,2.6893,2.7155,2.7185,2.6915,2.6917,2.692,0,2.7276,2.7308,2.7237,2.7239,2.7213,2.7218,2.7211,2.7119,2.7117,2.7072,2.7097,2.709,2.7078,2.7085,2.7022,2.701,2.6973,2.7066,2.697,2.6995,2.6974,2.6973,2.6975,2.7086,2.7089,2.7092,2.7094,0,2.7503,2.7463,2.7457,2.7439,2.7434,2.7415,2.739,2.7397,2.7297,2.7299,2.7298,2.729,2.7274,2.7268,2.7244,2.7212,2.7138,2.7125,2.714,2.7166,2.7194,2.718,2.6889,2.7119,2.7116,2.7115,2.7113,2.7112,2.7679,2.7702,2.7656,2.7653,2.7624,2.7603,2.7618,2.7566,2.7564,2.7543,2.749,2.7498,2.7456,2.7416,2.7392,2.7397,2.735,2.7373,2.7379,2.7386,2.74,2.7194,2.7392,2.7392,2.7391,2.739,2.7389,0,2.79,2.7865,2.7863,2.7831,2.7829,2.7758,2.7727,2.773,2.7738,2.7705,2.7697,2.7696,2.769,2.7628,2.7614,2.7631,2.7596,2.7631,2.7628,2.7622,2.7443,2.743,2.7659,2.7659,2.7659,2.7659,2.7659,2.7659,2.8014,2.8051,2.8007,2.8029,2.7992,2.8,2.7988,2.7969,2.7942,2.7946,2.794,2.7899,2.7855,2.7838,2.7829,2.7811,2.781,2.7857,2.7827,2.7661,2.7635,2.761,2.7597,2.7858,2.7858,2.8006,2.8007,2.8008]}]]